Location: Huberhof
(49.2050°N, 7.4980°E)
Time: 01:01:28
(UTC+00:00)

IRS-1C Rocket - Pass Details

Date: 29 October 2020
Orbit: 801 x 805 km, 99.0° (Epoch: 26 November)

Event Time Altitude Azimuth Distance (km) Brightness Sun altitude
Rises 16:49:38 0° 142° (SE) 3,306 7.0 -6.5°
Reaches altitude 10° 16:52:02 10° 136° (SE) 2,380 6.3 -6.9°
Maximum altitude 16:56:59 44° 66° (ENE) 1,114 4.4 -7.7°
Drops below altitude 10° 17:01:58 10° 356° (N) 2,398 6.5 -8.5°
Sets 17:04:24 0° 350° (N) 3,333 7.3 -8.9°
